This is the latest recevied weather packets stored in our database for station/object W0CHP-13. If no packets are shown the sender has not sent any weather packets the latest 10 day(s).
| Time | Temp. | Humidity | Pressure | Rain* | Wind** | Luminosity | Snow |
|---|---|---|---|---|---|---|---|
| 1777752798 | 18.33° C | 25% | 1013.2 hPa | 0 mm | - | 718 W/m² | - |
| 1777752196 | 18.89° C | 26% | 1013.4 hPa | 0 mm | - | 626 W/m² | - |
| 1777751598 | 18.89° C | 26% | 1013.4 hPa | 0 mm | - | 684 W/m² | - |
| 1777750996 | 18.89° C | 27% | 1013.9 hPa | 0 mm | - | 697 W/m² | - |
| 1777750398 | 18.33° C | 26% | 1013.9 hPa | 0 mm | - | 712 W/m² | - |
| 1777749797 | 18.89° C | 25% | 1014.1 hPa | 0 mm | - | 725 W/m² | - |
| 1777749194 | 19.44° C | 25% | 1014.4 hPa | 0 mm | - | 743 W/m² | - |
| 1777748597 | 18.89° C | 27% | 1014.4 hPa | 0 mm | - | 773 W/m² | - |
| 1777747995 | 18.89° C | 26% | 1014.4 hPa | 0 mm | - | 518 W/m² | - |
| 1777747397 | 18.33° C | 26% | 1014.8 hPa | 0 mm | - | 751 W/m² | - |
| 1777746795 | 18.89° C | 28% | 1014.8 hPa | 0 mm | - | 771 W/m² | - |
| 1777746197 | 18.33° C | 26% | 1015.1 hPa | 0 mm | - | 810 W/m² | - |
| 1777745595 | 18.33° C | 26% | 1015.1 hPa | 0 mm | - | 757 W/m² | - |
| 1777744997 | 19.44° C | 24% | 1015.1 hPa | 0 mm | - | 794 W/m² | - |
| 1777744395 | 19.44° C | 25% | 1015.3 hPa | 0 mm | - | 782 W/m² | - |
| 1777743798 | 19.44° C | 25% | 1015.3 hPa | 0 mm | - | 199 W/m² | - |
| 1777743195 | 18.89° C | 27% | 1015.8 hPa | 0 mm | - | 790 W/m² | - |
| 1777742598 | 17.78° C | 29% | 1015.6 hPa | 0 mm | - | 677 W/m² | - |
| 1777741996 | 18.33° C | 23% | 1015.8 hPa | 0 mm | - | 770 W/m² | - |
| 1777741398 | 19.44° C | 23% | 1016.1 hPa | 0 mm | - | 185 W/m² | - |
| 1777740796 | 20° C | 24% | 1016 hPa | 0 mm | - | 810 W/m² | - |
| 1777740198 | 18.89° C | 24% | 1016.1 hPa | 0 mm | - | 757 W/m² | - |
| 1777739596 | 18.89° C | 27% | 1016 hPa | 0 mm | - | 720 W/m² | - |
| 1777738998 | 18.89° C | 26% | 1016.1 hPa | 0 mm | - | 184 W/m² | - |
| 1777738396 | 18.33° C | 23% | 1016.5 hPa | 0 mm | - | 351 W/m² | - |
* Rain latest hour (hover to see other rain measurements)
** Current wind speed in m/s (hover to see current wind gust speed)